User: anonymous   Login
Location: Caltech
(34.1382°N, 118.1253°W)
Time: 13:02:59
(UTC-07:00)
Language:

ASTRO E2 - Orbit

View from above orbital plane
View from above orbital plane
View from above satellite
View from above satellite

Ground track
Ground track

The orbit data is extracted from the following two-line orbital elements,

1 28773U 05025A   15209.83369340  .00001912  00000-0  10067-3 0  9992
2 28773 031.3833 079.1765 0005284 280.0764 079.9286 15.13125323552741
Epoch (UTC): 28 July 2015 20:00:31
Eccentricity: 0.0005284
inclination: 31.3833°
perigee height: 523 km
apogee height: 530 km
right ascension of ascending node: 79.1765°
argument of perigee: 280.0764°
revolutions per day: 15.13125323
mean anomaly at epoch: 79.9286°
orbit number at epoch: 55274

The dashed part of the orbit path shows where the satellite is in the earth's shadow,  

DLR